FW4672 Weather Reports


time (UTC)temp
C
wind
direction
speed
KPH
gust
KPH
rain 1hr
cm
rain 24hr
cm
rain mn
cm
humidity
%
barometer
mb
20260508023725 16 315 0.0 0.0 0.00 0.00 0.00 87 1033.8
20260508022725 16 316 0.0 0.0 0.00 0.00 0.00 88 1033.7
20260508015826 16 315 0.0 0.0 0.00 0.00 0.00 89 1033.5
20260508014827 16 322 0.0 0.0 0.00 0.00 0.00 89 1033.4
20260508013926 16 331 0.0 0.0 0.00 0.00 0.00 90 1033.4
20260508012928 17 315 0.0 0.0 0.00 0.00 0.00 89 1033.5
20260508011927 17 318 0.0 0.0 0.00 0.00 0.00 89 1033.4
20260508011025 17 319 0.0 0.0 0.00 0.00 0.00 90 1033.5
20260508010026 17 337 0.0 0.0 0.00 0.00 0.00 91 1033.5
20260508004127 17 315 0.0 0.0 0.00 0.00 0.00 91 1033.4
20260508003127 17 337 0.0 0.0 0.00 0.00 0.00 92 1033.5
20260508002128 17 325 0.0 0.0 0.00 0.00 0.00 90 1033.4
20260508000227 18 316 0.0 0.0 0.00 0.00 0.00 91 1033.5
20260507234228 18 320 0.0 0.0 0.00 0.00 0.00 91 1033.5
20260507233325 18 335 0.0 0.0 0.00 0.00 0.00 90 1033.4
20260507232326 18 319 0.0 0.0 0.00 0.00 0.00 89 1033.4
20260507230428 18 331 0.0 0.0 0.00 0.00 0.00 90 1033.3
20260507225427 18 332 0.0 0.0 0.00 0.00 0.00 92 1033.4
20260507224428 18 316 0.0 0.0 0.00 0.00 0.00 89 1033.4
20260507223526 18 318 0.0 0.0 0.00 0.00 0.00 87 1033.6
20260507221528 18 316 0.0 0.0 0.00 0.00 0.00 89 1033.7
20260507214727 19 317 0.0 0.0 0.00 0.00 0.00 87 1033.9
20260507213726 20 324 0.0 0.0 0.00 0.00 0.00 88 1034.0
20260507212726 20 317 0.0 0.0 0.00 0.00 0.00 89 1034.0
20260507211727 20 323 0.0 0.0 0.00 0.00 0.00 87 1034.0
20260507205725 20 322 0.0 0.0 0.00 0.00 0.00 88 1034.2
20260507203729 20 321 0.0 0.0 0.00 0.00 0.00 87 1034.2
20260507202826 20 325 0.0 0.0 0.00 0.00 0.00 87 1034.3
20260507201827 20 327 0.0 0.0 0.00 0.00 0.00 86 1034.5
20260507200826 19 323 0.0 0.0 0.00 0.00 0.00 88 1034.5
20260507195827 19 317 0.0 0.0 0.00 0.00 0.00 86 1034.5
20260507193829 19 322 0.0 0.0 0.00 0.00 0.00 85 1034.6
20260507192827 19 323 0.0 0.0 0.00 0.00 0.00 86 1034.5
20260507191826 20 322 0.0 0.0 0.00 0.00 0.00 86 1034.6
20260507190925 19 318 0.0 0.0 0.00 0.00 0.00 84 1034.8
20260507185025 18 324 0.0 0.0 0.00 0.00 0.00 84 1035.2
20260507183027 18 321 0.0 0.0 0.00 0.00 0.00 83 1035.2
20260507181027 17 318 0.0 0.0 0.00 0.00 0.00 83 1035.3
20260507180026 17 316 0.0 0.0 0.00 0.00 0.00 83 1035.3
20260507175027 17 322 0.0 0.0 0.00 0.00 0.00 84 1035.4
20260507174028 17 322 0.0 0.0 0.00 0.00 0.00 84 1035.5
20260507172027 17 335 0.0 0.0 0.00 0.00 0.00 86 1035.4
20260507171027 17 315 0.0 0.0 0.00 0.00 0.00 85 1035.5
20260507170027 17 316 0.0 0.0 0.00 0.00 0.00 86 1035.5
20260507164126 17 317 0.0 0.0 0.00 0.00 0.00 88 1035.5
20260507163127 17 317 0.0 0.0 0.00 0.00 0.00 90 1035.7
20260507162126 17 325 0.0 0.0 0.00 0.00 0.00 88 1035.8
20260507161127 17 315 0.0 0.0 0.00 0.00 0.00 88 1035.7
20260507154226 16 335 0.0 0.0 0.00 0.00 0.00 91 1035.8
20260507153228 16 315 0.0 0.0 0.00 0.00 0.00 90 1035.8
20260507152326 16 315 0.0 0.0 0.00 0.00 0.00 90 1035.7
20260507151327 16 360 0.0 0.0 0.00 0.00 0.00 90 1035.8
20260507150326 16 221 0.0 0.0 0.00 0.00 0.00 91 1035.8
20260507145327 16 336 0.0 0.0 0.00 0.00 0.00 90 1035.7
20260507144327 15 337 0.0 0.0 0.00 0.00 0.00 89 1035.5
20260507143325 15 337 0.0 0.0 0.00 0.00 0.00 89 1035.5
20260507141426 15 337 0.0 0.0 0.00 0.00 0.00 90 1035.3
20260507140425 15 337 0.0 0.0 0.00 0.00 0.00 91 1035.3
20260507135427 15 337 0.0 0.0 0.00 0.00 0.00 90 1035.2
20260507133426 15 337 0.0 0.0 0.00 0.00 0.00 92 1035.1
20260507132525 15 337 0.0 0.0 0.00 0.00 0.00 92 1035.1
20260507131526 15 180 0.0 0.0 0.00 0.00 0.00 92 1035.1
20260507125526 14 180 0.0 0.0 0.00 0.00 0.00 92 1034.9
20260507124526 14 180 0.0 0.0 0.00 0.00 0.00 93 1034.9
20260507123527 14 180 0.0 0.0 0.00 0.00 0.00 93 1034.8
20260507120527 14 337 0.0 0.0 0.00 0.00 0.00 92 1034.7
20260507115528 14 337 0.0 0.0 0.00 0.00 0.00 92 1034.6
20260507114625 14 337 0.0 0.0 0.00 0.00 0.00 92 1034.6
20260507113627 14 337 0.0 0.0 0.00 0.00 0.00 92 1034.8
20260507112626 14 337 0.0 0.0 0.00 0.00 0.00 92 1034.8
20260507111627 14 337 0.0 0.0 0.00 0.00 0.00 90 1034.8
20260507110627 14 337 0.0 0.0 0.00 0.00 0.00 91 1034.9
20260507104824 14 315 0.0 0.0 0.00 0.00 0.00 90 1035.1
20260507103827 14 337 0.0 0.0 0.00 0.00 0.00 90 1035.2
20260507102925 14 337 0.0 0.0 0.00 0.00 0.00 89 1035.2
20260507101926 15 337 0.0 0.0 0.00 0.00 0.00 88 1035.2
20260507100928 15 337 0.0 0.0 0.00 0.00 0.00 89 1035.2
20260507094927 15 337 0.0 0.0 0.00 0.00 0.00 89 1035.3
20260507093926 15 337 0.0 0.0 0.00 0.00 0.00 89 1035.3
20260507092927 15 328 0.0 0.0 0.00 0.00 0.00 90 1035.4
20260507091927 15 315 0.0 0.0 0.00 0.00 0.00 90 1035.4
20260507091026 15 316 0.0 0.0 0.00 0.00 0.00 89 1035.5
20260507090025 15 337 0.0 0.0 0.00 0.00 0.00 90 1035.6
20260507085026 15 315 0.0 0.0 0.00 0.00 0.00 89 1035.7
20260507084026 15 315 0.0 0.0 0.00 0.00 0.00 89 1035.8
20260507083027 15 315 0.0 0.0 0.00 0.00 0.00 89 1035.9
20260507082125 15 315 0.0 0.0 0.00 0.00 0.00 90 1036.0
20260507080126 15 315 0.0 0.0 0.00 0.00 0.00 90 1036.2
20260507080025 15 315 0.0 0.0 0.00 0.00 0.00 89 1036.2
20260507074026 15 315 0.0 0.0 0.00 0.00 0.00 90 1036.2
20260507073028 15 337 0.0 0.0 0.00 0.00 0.00 90 1036.2
20260507072026 15 360 0.0 0.0 0.00 0.00 0.00 90 1036.2
20260507071025 14 360 0.0 0.0 0.00 0.00 0.00 90 1036.4
20260507061124 15 360 0.0 0.0 0.00 0.00 0.00 88 1036.4
20260507060127 15 360 0.0 0.0 0.00 0.00 0.00 88 1036.5
20260507055224 15 360 0.0 0.0 0.00 0.00 0.00 88 1036.5
20260507054226 15 337 0.0 0.0 0.00 0.00 0.00 88 1036.5
20260507053226 15 328 0.0 0.0 0.00 0.00 0.00 88 1036.5
20260507052224 15 337 0.0 0.0 0.00 0.00 0.00 88 1036.5
20260507051225 15 337 0.0 0.0 0.00 0.00 0.00 88 1036.5
20260507045324 15 360 0.0 0.0 0.00 0.00 0.00 89 1036.4
20260507045224 15 357 0.0 0.0 0.00 0.00 0.00 89 1036.4
20260507044226 15 360 0.0 0.0 0.00 0.00 0.00 88 1036.4
20260507043225 15 338 0.0 0.0 0.00 0.00 0.00 88 1036.2
20260507041324 15 360 0.0 0.0 0.00 0.00 0.00 89 1036.2
20260507040325 16 360 0.0 0.0 0.00 0.00 0.00 89 1036.2
20260507035325 15 355 0.0 0.0 0.00 0.00 0.00 89 1036.2
20260507034326 16 360 0.0 0.0 0.00 0.00 0.00 89 1036.1
20260507033423 16 346 0.0 0.0 0.00 0.00 0.00 89 1036.0
20260507032425 16 353 0.0 0.0 0.00 0.00 0.00 88 1035.8
20260507030425 16 349 0.0 0.0 0.00 0.00 0.00 87 1035.7
20260507025424 16 342 0.0 0.0 0.00 0.00 0.00 86 1035.7